Biggs, California, United States (95917)
Lat: 39.41N, Lon: 121.71W
Wx Zone: CAZ016
Local Info
Past Weather Observations for Tuesday, November 18, 2014

NOTE: This archive is for the closest National Weather Service station to Biggs. Information may differ from the station used for current weather conditions.

Click here for Long-term Archive

Time Weather Temperature Dewpoint Humidity Pressure Winds Precip Visibility
23:53
Overcast
48°F / 9°C 43°F / 6°C 82% 30.09 in
(1019 mb)
Calm - 9SM
22:53
Mostly Cloudy
48°F / 9°C 43°F / 6°C 82% 30.12 in
(1020 mb)
Calm - 9SM
21:53
Partly Cloudy
48°F / 9°C 43°F / 6°C 82% 30.12 in
(1020 mb)
Calm - 10SM
20:53
Partly Cloudy
48°F / 9°C 43°F / 6°C 82% 30.09 in
(1019 mb)
Calm - 10SM
19:53
Mostly Cloudy
52°F / 11°C 41°F / 5°C 67% 30.09 in
(1019 mb)
Calm - 10SM
18:53
Clear
54°F / 12°C 39°F / 4°C 58% 30.09 in
(1019 mb)
Calm - 10SM
17:53
Clear
54°F / 12°C 41°F / 5°C 63% 30.12 in
(1020 mb)
NW 3.5 mph
(NW 6 kph)
- 10SM
16:53
Clear
55°F / 13°C 39°F / 4°C 55% 30.12 in
(1020 mb)
W 4.6 mph
(W 7 kph)
- 10SM
15:53
Clear
57°F / 14°C 39°F / 4°C 51% 30.12 in
(1020 mb)
Calm - 10SM
14:53
Clear
63°F / 17°C 36°F / 2°C 37% 30.12 in
(1020 mb)
W 3.5 mph
(W 6 kph)
- 10SM
13:53
Clear
61°F / 16°C 37°F / 3°C 42% 30.15 in
(1021 mb)
Calm - 10SM
12:53
Clear
55°F / 13°C 39°F / 4°C 55% 30.18 in
(1022 mb)
Variable 5.8 mph
(Variable 9 kph)
- 10SM
11:53
Clear
57°F / 14°C 37°F / 3°C 48% 30.18 in
(1022 mb)
W 8.1 mph
(W 13 kph)
- 10SM
10:53
Clear
57°F / 14°C 37°F / 3°C 48% 30.21 in
(1023 mb)
Calm - 10SM
09:53
Clear
46°F / 8°C 39°F / 4°C 76% 30.21 in
(1023 mb)
Calm - 10SM
08:53
Clear
45°F / 7°C 37°F / 3°C 76% 30.21 in
(1023 mb)
Calm - 9SM
07:53
Clear
39°F / 4°C 36°F / 2°C 87% 30.18 in
(1022 mb)
W 3.5 mph
(W 6 kph)
- 10SM
06:53
Clear
37°F / 3°C 36°F / 2°C 93% 30.18 in
(1022 mb)
SSW 3.5 mph
(SSW 6 kph)
- 10SM
05:53
Clear
37°F / 3°C 36°F / 2°C 93% 30.18 in
(1022 mb)
Calm - 10SM
04:53
Clear
39°F / 4°C 34°F / 1°C 81% 30.18 in
(1022 mb)
SSW 3.5 mph
(SSW 6 kph)
- 10SM
03:53
Clear
39°F / 4°C 36°F / 2°C 87% 30.18 in
(1022 mb)
ENE 6.9 mph
(ENE 11 kph)
- 10SM
02:53
Clear
37°F / 3°C 34°F / 1°C 87% 30.18 in
(1022 mb)
NNE 3.5 mph
(NNE 6 kph)
- 10SM
01:53
Clear
43°F / 6°C 36°F / 2°C 76% 30.18 in
(1022 mb)
Calm - 10SM
00:53
Clear
43°F / 6°C 36°F / 2°C 76% 30.15 in
(1021 mb)
Calm - 10SM
Time Weather Temperature Dewpoint Humidity Pressure Winds Precip Visibility


Weather for websites

WeatherForYou.com, LLC is not responsible for any damages or problems caused by this service. Current weather conditions are obtained from the closest station including government and personal stations which may have varying degrees of accuracy. Weather forecasts are derived from the NOAA NDFD. Like all things, this site belongs to Jesus Christ... He just trusts me to maintain it. If you have any questions or comments email webmaster@weatherforyou.com

Copyright © 2014, WeatherForYou.com LLC. All rights reserved.